Torna al catalogo

CH 3 PROPULSION MODULE

LostScienzaHEO
NORAD 57770·PAYLOAD·🇮🇳 India

Lanciato Jul 14, 2023 da Satish Dhawan Space Centre

Loading…

Prossimi Passaggi (prossime 24 ore)

TLE

ObsoletoSource: Space-Track

Epoca: Jun 27, 2025, 12:38 UTC

1 57770U 23098C   25178.52673942 -.00003581  00000-0  00000-0 0  9997
2 57770  33.9343   3.0372 4096658 294.0371 359.8283  0.08228025   434

Traccia CH 3 PROPULSION MODULE in tempo reale con AllMySat

Download on the App Store